Zurück zum Katalog

FLOCK 4G 4

AktivWissenschaftSSO
NORAD 62659·PAYLOAD·🇺🇸 United States

Gestartet Jan 14, 2025 von Vandenberg Space Force Base

Loading…

Nächste Überflüge (nächste 24 Stunden)

TLE

AktuellSource: Space-Track

Epoche: Sep 14, 2026, 04:19 UTC

1 62659U 25009BC  26257.18051479  .00031386  00000-0  89180-3 0  9991
2 62659  97.3886 338.4772 0002479  12.0693 348.0609 15.36114192150142

Verfolge FLOCK 4G 4 in Echtzeit mit AllMySat

Download on the App Store